Regional Weather Roundup
Issued by NWS

Home | Current Version | Previous Version | Graphics & Text | Print | Product List | Glossary On
Versions: 1 2 3 4 5 6 7 8 9 10 11 12 13 14 15 16 17 18 19 20 21 22 23 24 25 26 27 28 29 30 31 32 33 34 35 36 37 38 39 40 41 42 43 44 45 46 47 48 49 50
000
ASUS43 KFSD 031810
RWRSD

WEATHER ROUNDUP FOR SOUTH DAKOTA
NATIONAL WEATHER SERVICE SIOUX FALLS SD
100 PM CDT THU SEP 03 2015

NOTE: "FAIR" INDICATES FEW OR NO CLOUDS BELOW 12,000 FEET WITH NO
SIGNIFICANT WEATHER AND/OR OBSTRUCTIONS TO VISIBILITY.


SDZ001>005-009-010-012>017-031900-
NORTHWEST AND NORTH CENTRAL SOUTH DAKOTA

CITY           SKY/WX    TMP DP  RH WIND       PRES   REMARKS
BUFFALO          N/A     85  45  24 W16       29.72R
MOBRIDGE       SUNNY     93  67  42 SE14      29.69F HX  96
$$

SDZ012>016-024>037-041>051-057-063-072>074-031900-
SOUTHWEST AND SOUTH CENTRAL SOUTH DAKOTA

CITY           SKY/WX    TMP DP  RH WIND       PRES   REMARKS
RAPID CTY ARPT MOSUNNY   93  56  28 SE6       29.78F
PIERRE         MOSUNNY   96  64  34 SE16      29.72F HX  98
CUSTER         MOSUNNY   86  36  16 S5        29.98F
ELLSWORTH AFB  MOSUNNY   95  55  26 S8        29.77F
PHILIP         MOSUNNY   97  59  28 S15       29.73F HX  96
PINE RIDGE     MOSUNNY   92  47  21 VRB3      29.84F
WINNER         FAIR      96  55  25 S15       29.78F
$$

SDZ004>011-016>023-039-040-031900-
NORTHEAST SOUTH DAKOTA

CITY           SKY/WX    TMP DP  RH WIND       PRES   REMARKS
ABERDEEN       SUNNY     90  72  55 S16       29.76F HX  97
WATERTOWN      SUNNY     88  70  55 SE14      29.83F
BROOKINGS      SUNNY     84  72  65 S16       29.86S
SISSETON         N/A     83  71  67 S14G20    29.80F
$$

SDZ017-020-022-023-036>040-048>070-031900-
SOUTHEAST SOUTH DAKOTA

CITY           SKY/WX    TMP DP  RH WIND       PRES   REMARKS
SIOUX FALLS    SUNNY     84  71  65 SE12      29.83F
HURON          SUNNY     87  71  58 MISG      29.78F
CHAMBERLAIN    SUNNY     89  69  51 SE14      29.78F
MITCHELL       SUNNY     88  72  58 S10       29.80F
YANKTON        SUNNY     84  72  65 E9        29.79F
$$

ABBREVIATIONS USED IN REMARKS
   TC - TEMPERATURE IN CELSIUS
  WCI - WIND CHILL INDEX
   HX - HEAT INDEX
  VSB - VISIBILITY



USA.gov is the U.S. government's official web portal to all federal, state and local government web resources and services.